Flag for U.S.A. Weather past 2 weeks in Santa Rosa, California, U.S.A.

Now
40 °F

Light fog.


Feels Like: 40 °F
Forecast: 35 / 56 °F
Wind: No wind

Location: Santa Rosa Sonoma County Airport

Current Time: Dec 28, 2014 at 9:24:29 AM

Latest Report: Dec 28, 2014 at 8:53 AM


Visibility: 10 mi

Pressure: 30.32 "Hg

Humidity: 97%

Dew point: 39 °F

Location of Santa RosaLocation

Historic Weather in Santa Rosa — Graph

°F

Santa Rosa temperature yesterday

Maximum temperature yesterday: 57 °F (at 1:53 PM)
Minimum temperature yesterday: 31 °F (at 6:53 AM)
Average temperature yesterday: 43 °F

Past Weeks' High & Low Weather Summary

 TemperatureHumidityPressure
High70 °F (Dec 22, 1:53 PM)100% (Dec 13, 7:53 AM)30.36 "Hg (Dec 13, 7:53 AM)
Low31 °F (Dec 27, 6:53 AM)29% (Dec 26, 2:53 PM)29.78 "Hg (Dec 16, 3:53 PM)
Average51 °F87%30.10 "Hg
* Reported Dec 13 7:53 AM — Dec 28 7:53 AM, Santa Rosa, Weather by CustomWeather, © 2014

Note: Actual official high and low records may vary slightly from our data, if they occured in-between our weather recording intervals... More about our weather records

Advertising

Santa Rosa weather history for previous 24 hours

 ConditionsComfort  
Time TempWeatherWind HumidityBarometerVisibility
7:53 AM
Dec 28
35 °FLight fog.No wind100%30.31 "Hg10 mi
6:53 AM36 °FClear.No wind97%30.31 "Hg8 mi
5:53 AM37 °FFog.No wind96%30.31 "Hg4 mi
4:53 AM38 °FOvercast.No wind97%30.30 "Hg8 mi
3:53 AM38 °FClear.No wind97%30.32 "Hg10 mi
2:53 AM38 °FClear.No wind97%30.33 "Hg9 mi
1:53 AM40 °FClear.No wind93%30.34 "Hg10 mi
12:53 AM40 °FClear.No wind93%30.34 "Hg10 mi
11:53 PM
Dec 27
41 °FClear.No wind89%30.36 "Hg10 mi
10:53 PM40 °FClear.3 mph93%30.36 "Hg10 mi
9:53 PM41 °FClear.No wind89%30.35 "Hg10 mi
8:53 PM43 °FClear.No wind79%30.34 "Hg10 mi
7:53 PM44 °FClear.No wind79%30.35 "Hg10 mi
6:53 PM46 °FClear.No wind71%30.34 "Hg10 mi
5:53 PM48 °FClear.7 mph66%30.32 "Hg10 mi
4:53 PM51 °FSunny.6 mph61%30.32 "Hg10 mi
3:53 PM56 °FScattered clouds.10 mph53%30.31 "Hg10 mi
2:53 PM57 °FScattered clouds.No wind47%30.28 "Hg10 mi
1:53 PM57 °FSunny.5 mph46%30.29 "Hg10 mi
12:53 PM55 °FSunny.No wind47%30.31 "Hg10 mi
11:53 AM52 °FSunny.No wind53%30.32 "Hg10 mi
10:53 AM48 °FSunny.5 mph61%30.34 "Hg10 mi
9:53 AM43 °FSunny.No wind74%30.36 "Hg10 mi
Weather by CustomWeather, © 2014

See weather overviewHow to use our weather pages